Погода в Байсуне

Узбекистан     38°12′29″N   67°12′25″E
темп.,
°C
ветер,
м/с
пор.,
м/с
влажн.,
%
обл.,
%
осадки,
мм/ч
давл.,
гПа
погр.,
м
17 мая, пн
пн1723:00+16с22392 0.0 101411
02:00+16ссв22352 0.0 101312
05:00+15с33332 0.0 101419
08:00+19ююз12271 0.0 1015577
11:00+21ю23201 0.0 10152855
14:00+23ю23185 0.0 10133316
17:00+24юз13162 0.0 10113378
20:00+18юз11320 0.0 101212
18 мая, вт
вт1823:00+17с22290 0.0 101313
02:00+17с33333 0.0 101224
05:00+17ссв222978 0.0 101216
08:00+20с102878 0.0 1012133
11:00+23ю442411 0.0 10122899
14:00+24ю542347 0.0 10102880
17:00+23зюз1223100 0.0 10092940
20:00+20ссз222943 0.0 101014
19 мая, ср
ср1923:00+18с22283 0.0 101111
02:00+16св22291 0.0 101011
05:00+15с22400 0.0 101011
08:00+20ю11290 0.0 1011795
11:00+22ююз32150 0.0 10102657
14:00+24ююз23100 0.0 10093182
17:00+24ююз331126 0.0 10083281
20:00+19зсз2219100 0.0 100912
20 мая, чт
чт2023:00+18ссз4317100 0.0 101027
02:00+18с3319100 0.0 100923
05:00+17с43215 0.0 101041
08:00+21сз11173 0.0 1011322
11:00+24ююз231325 0.0 10103644
14:00+25зюз431354 0.0 10093994
17:00+22с462261 0.0 10111741
20:00+19ссз11295 0.0 101111
21 мая, пт
пт2123:00+17ссз33296 0.0 101326
02:00+16с43313 0.0 101327
05:00+16ссз443041 0.0 101333
08:00+20с222546 0.0 1013631
11:00+23ю2220100 0.0 10122964
14:00+24з561994 0.0 10103669
17:00+23сз582296 0.1 10112804
20:00+17ссз114224 0.0 101226